Location: Dreilärchen
(47.9312°N, 8.6113°E)
Time: 03:07:57
(UTC+00:00)

Cosmos 1300 - Pass Details

Date: 26 May 2022
Orbit: 506 x 509 km, 82.5° (Epoch: 26 June)

Event Time Altitude Azimuth Distance (km) Brightness Sun altitude
Rises 00:55:28 0° 343° (NNW) 2,623 7.1 -17.9°
Reaches altitude 10° 00:57:43 10° 334° (NNW) 1,732 5.9 -17.7°
Maximum altitude 01:01:12 36° 268° (W) 824 3.5 -17.5°
Enters shadow 01:01:46 34° 246° (WSW) 861 3.4 -17.5°
